Location: Boda
(47.1872°N, 9.5454°E)
Time: 07:58:18
(UTC+00:00)

Cosmos 1140 Rocket - Pass Details

Date: 14 May 2021
Orbit: 744 x 768 km, 74.1° (Epoch: 16 June)

Event Time Altitude Azimuth Distance (km) Brightness Sun altitude
Rises 02:31:29 0° 329° (NNW) 3,228 6.9 -11.2°
Reaches altitude 10° 02:34:04 10° 319° (NW) 2,301 6.0 -10.8°
Maximum altitude 02:38:36 31° 259° (W) 1,328 4.3 -10.3°
Drops below altitude 10° 02:43:07 10° 199° (SSW) 2,297 5.4 -9.7°
Enters shadow 02:43:52 - 195° (SSW) 2,557 5.7 -9.6°
